Find OneWeb SL0090

NORAD ID: 45427 Int'l Des: 2020-020 Owner: ONEWEB Country: UK Constellation: oneweb operational
LEOCIRCULARPOLARONEWEB_TYPE

現在のビュー

3D地球を読み込み中...

About OneWeb SL0090

OneWeb SL0090 (NORAD 45427) is a oneweb constellation satellite launched Mar 21, 2020 by ONEWEB of UK. It operates in LEO, CIRCULAR, POLAR, ONEWEB_TYPE orbit with a mass of 148.00 kg.

OneWeb SL0090について

説明を読み込み中...

次回通過

Passes for default location (London). Set your location on the main map for personalized predictions.

高度履歴

Loading altitude history...

軌道要素

1 45427U 20020D 26170.57816275 .00000523 00000-0 14390-2 0 9992
2 45427 87.8893 20.5963 0001804 88.5288 271.6046 13.11415414302987
Epoch: Jun 19, 2026 • Age: 7 hours

現在のステータス

高度 1238.2 km
速度 7.23 km/s
衛星直下点 -50.12°S, 13.09°W
打ち上げ日 Mar 21, 2020
運用期間 6.2 years
タイプ internet

技術仕様

分類 Payload
質量 148.00 kg
乾燥質量 140.00 kg
総質量 148.00 kg
長さ 1.30 m
直径 1.00 m
スパン 5.00 m
形状 Trapezoid+2 pan
製造者 ONEWUS
バスタイプ ARROW
フェーズステータス In Orbit
所有者/国 ONEWEB/UK

Most Searched